• In Portugal
  • List of Countries
  • For 7 days
  • Water Temperature
  • Satellite Maps
  • Weather Map
  • Weather Widgets
  • user-avatar
    Login

    Hourly Weather Harper

    Today, 17 August, Friday

    Time Temperature Precipitation Wind Pressure Humidity
    00:00 +26°C° 0.3 mm 4 mps 762 mmHg 91%
    01:00 +26°C° 0.3 mm 4 mps 762 mmHg 91%
    02:00 +26°C° 0.3 mm 4 mps 762 mmHg 91%
    03:00 +26°C° 0.9 mm 4 mps 762 mmHg 91%
    04:00 +26°C° 0.9 mm 4 mps 762 mmHg 92%
    05:00 +25°C° 0 mm 3 mps 762 mmHg 92%
    06:00 +26°C° 0.8 mm 4 mps 762 mmHg 88%
    07:00 +27°C° 0.8 mm 4 mps 762 mmHg 85%
    08:00 +28°C° 0.8 mm 4 mps 762 mmHg 81%
    09:00 +29°C° 0.5 mm 4 mps 762 mmHg 79%
    10:00 +29°C° 0.5 mm 5 mps 762 mmHg 77%
    11:00 +30°C° 0 mm 5 mps 762 mmHg 74%
    12:00 +30°C° 0.5 mm 5 mps 761 mmHg 74%
    13:00 +30°C° 0.5 mm 5 mps 761 mmHg 74%
    14:00 +29°C° 0.5 mm 5 mps 760 mmHg 75%
    15:00 +29°C° 0.1 mm 5 mps 760 mmHg 77%
    16:00 +28°C° 0.1 mm 5 mps 760 mmHg 79%
    17:00 +28°C° 0.1 mm 5 mps 760 mmHg 81%
    18:00 +27°C° 0 mm 5 mps 760 mmHg 83%
    19:00 +27°C° 0 mm 4 mps 761 mmHg 85%
    20:00 +26°C° 0 mm 4 mps 761 mmHg 86%
    21:00 +26°C° 0 mm 4 mps 761 mmHg 87%
    22:00 +26°C° 0 mm 4 mps 761 mmHg 88%
    23:00 +26°C° 0 mm 4 mps 762 mmHg 88%

    Tomorrow, 18 August, Saturday

    Time Temperature Precipitation Wind Pressure Humidity
    00:00 +26°C° 0 mm 4 mps 761 mmHg 89%
    01:00 +26°C° 0 mm 4 mps 761 mmHg 89%
    02:00 +26°C° 0 mm 4 mps 761 mmHg 89%
    03:00 +26°C° 0 mm 4 mps 760 mmHg 89%
    04:00 +26°C° 0 mm 4 mps 760 mmHg 89%
    05:00 +25°C° 0 mm 4 mps 760 mmHg 89%
    06:00 +26°C° 0 mm 4 mps 760 mmHg 86%
    07:00 +27°C° 0 mm 4 mps 761 mmHg 82%
    08:00 +28°C° 0 mm 4 mps 761 mmHg 79%
    09:00 +28°C° 0 mm 4 mps 761 mmHg 75%
    10:00 +29°C° 0 mm 4 mps 761 mmHg 72%
    11:00 +30°C° 0 mm 4 mps 761 mmHg 68%
    12:00 +30°C° 0 mm 4 mps 761 mmHg 68%
    13:00 +30°C° 0 mm 5 mps 760 mmHg 69%
    14:00 +30°C° 0 mm 5 mps 759 mmHg 69%
    15:00 +29°C° 0 mm 5 mps 759 mmHg 72%
    16:00 +28°C° 0 mm 5 mps 759 mmHg 74%
    17:00 +28°C° 0 mm 5 mps 759 mmHg 77%
    18:00 +27°C° 0 mm 5 mps 760 mmHg 79%
    19:00 +27°C° 0 mm 5 mps 760 mmHg 82%
    20:00 +27°C° 0 mm 4 mps 761 mmHg 84%
    21:00 +27°C° 0.1 mm 4 mps 761 mmHg 85%
    22:00 +26°C° 0.1 mm 4 mps 761 mmHg 86%
    23:00 +26°C° 0.1 mm 5 mps 761 mmHg 86%

    Day after tomorrow, 19 August, Sunday

    Time Temperature Precipitation Wind Pressure Humidity
    00:00 +26°C° 0.1 mm 5 mps 761 mmHg 86%
    01:00 +26°C° 0.1 mm 5 mps 761 mmHg 86%
    02:00 +26°C° 0.1 mm 5 mps 760 mmHg 86%
    03:00 +26°C° 0.1 mm 5 mps 760 mmHg 87%
    04:00 +26°C° 0.1 mm 5 mps 760 mmHg 87%
    05:00 +26°C° 0.1 mm 5 mps 760 mmHg 87%
    06:00 +26°C° 0.1 mm 5 mps 761 mmHg 84%
    07:00 +27°C° 0.1 mm 5 mps 761 mmHg 82%
    08:00 +27°C° 0.1 mm 5 mps 762 mmHg 80%
    09:00 +28°C° 0.1 mm 5 mps 762 mmHg 77%
    10:00 +29°C° 0.1 mm 5 mps 762 mmHg 74%
    11:00 +29°C° 0.1 mm 5 mps 762 mmHg 72%
    12:00 +29°C° 0.1 mm 5 mps 761 mmHg 71%
    13:00 +30°C° 0.1 mm 5 mps 760 mmHg 70%
    14:00 +30°C° 0.1 mm 5 mps 760 mmHg 68%
    15:00 +29°C° 0 mm 5 mps 760 mmHg 71%
    16:00 +28°C° 0 mm 5 mps 760 mmHg 73%
    17:00 +28°C° 0 mm 5 mps 760 mmHg 76%
    18:00 +27°C° 0 mm 4 mps 760 mmHg 79%
    19:00 +27°C° 0 mm 4 mps 761 mmHg 82%
    20:00 +26°C° 0 mm 4 mps 762 mmHg 85%
    21:00 +26°C° 0 mm 3 mps 762 mmHg 85%
    22:00 +26°C° 0 mm 3 mps 762 mmHg 85%
    23:00 +26°C° 0 mm 3 mps 762 mmHg 86%

    20 August, Monday

    Time Temperature Precipitation Wind Pressure Humidity
    00:00 +26°C° 0 mm 3 mps 762 mmHg 86%
    01:00 +26°C° 0 mm 3 mps 761 mmHg 87%
    02:00 +26°C° 0 mm 3 mps 761 mmHg 87%
    03:00 +26°C° 0 mm 3 mps 761 mmHg 88%
    04:00 +26°C° 0 mm 3 mps 761 mmHg 88%
    05:00 +26°C° 0 mm 3 mps 761 mmHg 88%
    06:00 +26°C° 0.1 mm 3 mps 761 mmHg 85%
    07:00 +27°C° 0.1 mm 3 mps 762 mmHg 82%
    08:00 +28°C° 0.1 mm 4 mps 762 mmHg 78%
    09:00 +28°C° 0.1 mm 4 mps 762 mmHg 74%
    10:00 +29°C° 0.1 mm 4 mps 762 mmHg 70%
    11:00 +30°C° 0.1 mm 4 mps 762 mmHg 66%
    12:00 +30°C° 0 mm 4 mps 761 mmHg 66%
    13:00 +30°C° 0 mm 4 mps 761 mmHg 65%
    14:00 +30°C° 0 mm 4 mps 760 mmHg 65%
    15:00 +29°C° 0 mm 4 mps 760 mmHg 69%
    16:00 +29°C° 0 mm 4 mps 760 mmHg 72%
    17:00 +28°C° 0 mm 4 mps 760 mmHg 75%
    18:00 +27°C° 0 mm 4 mps 760 mmHg 78%
    19:00 +27°C° 0 mm 4 mps 761 mmHg 81%
    20:00 +26°C° 0 mm 4 mps 762 mmHg 83%
    21:00 +26°C° 0 mm 3 mps 762 mmHg 84%
    22:00 +26°C° 0 mm 3 mps 762 mmHg 85%
    23:00 +26°C° 0 mm 3 mps 762 mmHg 86%

    21 August, Tuesday

    Time Temperature Precipitation Wind Pressure Humidity
    00:00 +26°C° 0 mm 3 mps 762 mmHg 86%
    01:00 +25°C° 0 mm 3 mps 761 mmHg 87%
    02:00 +25°C° 0 mm 3 mps 761 mmHg 88%
    03:00 +25°C° 0 mm 3 mps 761 mmHg 87%
    04:00 +25°C° 0 mm 3 mps 761 mmHg 87%
    05:00 +25°C° 0 mm 3 mps 761 mmHg 87%
    06:00 +26°C° 0 mm 3 mps 761 mmHg 82%
    07:00 +27°C° 0 mm 3 mps 762 mmHg 77%
    08:00 +28°C° 0 mm 3 mps 762 mmHg 72%
    09:00 +29°C° 0 mm 3 mps 762 mmHg 70%
    10:00 +29°C° 0 mm 3 mps 762 mmHg 68%
    11:00 +29°C° 0 mm 3 mps 762 mmHg 67%
    12:00 +29°C° 0 mm 3 mps 761 mmHg 68%
    13:00 +29°C° 0 mm 3 mps 761 mmHg 69%
    14:00 +28°C° 0 mm 3 mps 760 mmHg 70%
    15:00 +28°C° 0 mm 3 mps 760 mmHg 71%
    16:00 +28°C° 0 mm 3 mps 760 mmHg 72%
    17:00 +27°C° 0 mm 3 mps 760 mmHg 74%
    18:00 +27°C° 0 mm 3 mps 761 mmHg 77%
    19:00 +26°C° 0 mm 3 mps 761 mmHg 81%
    20:00 +25°C° 0 mm 3 mps 762 mmHg 84%
    21:00 +25°C° 0 mm 3 mps 762 mmHg 85%
    22:00 +25°C° 0 mm 3 mps 762 mmHg 86%
    23:00 +25°C° 0 mm 3 mps 762 mmHg 87%

    22 August, Wednesday

    Time Temperature Precipitation Wind Pressure Humidity
    00:00 +25°C° 0 mm 3 mps 761 mmHg 87%
    01:00 +25°C° 0 mm 3 mps 761 mmHg 87%
    02:00 +25°C° 0 mm 3 mps 760 mmHg 87%
    03:00 +25°C° 0 mm 3 mps 761 mmHg 86%
    04:00 +25°C° 0 mm 2 mps 761 mmHg 85%
    05:00 +25°C° 0 mm 2 mps 761 mmHg 84%
    06:00 +26°C° 0 mm 2 mps 761 mmHg 79%
    07:00 +27°C° 0 mm 3 mps 762 mmHg 74%
    08:00 +28°C° 0 mm 3 mps 762 mmHg 70%
    09:00 +29°C° 0 mm 3 mps 762 mmHg 67%
    10:00 +29°C° 0 mm 3 mps 762 mmHg 65%
    11:00 +30°C° 0 mm 3 mps 762 mmHg 63%
    12:00 +29°C° 0 mm 3 mps 761 mmHg 65%
    13:00 +29°C° 0 mm 3 mps 761 mmHg 68%
    14:00 +28°C° 0 mm 3 mps 760 mmHg 70%
    15:00 +28°C° 0 mm 3 mps 760 mmHg 72%
    16:00 +28°C° 0 mm 3 mps 760 mmHg 74%
    17:00 +27°C° 0 mm 3 mps 760 mmHg 76%
    18:00 +27°C° 0 mm 3 mps 761 mmHg 79%
    19:00 +26°C° 0 mm 3 mps 761 mmHg 82%
    20:00 +26°C° 0 mm 3 mps 762 mmHg 85%
    21:00 +25°C° 0 mm 3 mps 762 mmHg 85%
    22:00 +25°C° 0 mm 3 mps 762 mmHg 86%
    23:00 +25°C° 0 mm 3 mps 761 mmHg 87%
    Show more